Schneifelwetter: Wetterstation Hallschlag, 537 m . NN
Wetterdaten: Montag, 20.06.2011
Datum Zeit Temp. A. Feuchte A. Luftdruck Regen Wind Richtung Richtung Sonnenschein Helligkeit T Regen Taupunkt Windchill
20.06.2011 00:11 6,3 C 91 % 1015 hPa 0,0 l/m 7,2 km/h (2 Bft) SW 225 0 min 0 lux 0,00 min 4,9 C 5,6 C
20.06.2011 00:26 6,2 C 91 % 1015 hPa 0,0 l/m 10,9 km/h (2 Bft) W-SW 255 0 min 0 lux 0,00 min 4,8 C 2,8 C
20.06.2011 00:41 6,2 C 91 % 1015 hPa 0,0 l/m 9,8 km/h (2 Bft) W-SW 250 0 min 0 lux 0,00 min 4,8 C 3,5 C
20.06.2011 00:55 6,2 C 91 % 1015 hPa 0,0 l/m 11,2 km/h (2 Bft) W-SW 255 0 min 0 lux 0,00 min 4,8 C 2,6 C
20.06.2011 01:10 6,2 C 92 % 1015 hPa 0,0 l/m 13,1 km/h (3 Bft) W-SW22.5 255 0 min 0 lux 0,00 min 5,0 C 1,5 C
20.06.2011 01:25 6,3 C 93 % 1015 hPa 0,0 l/m 20,1 km/h (4 Bft) W-SW22.5 255 0 min 0 lux 0,00 min 5,3 C -1,5 C
20.06.2011 01:40 6,1 C 93 % 1015 hPa 0,0 l/m 14,0 km/h (3 Bft) W-SW 250 0 min 0 lux 0,00 min 5,1 C 0,9 C
20.06.2011 01:55 5,9 C 92 % 1015 hPa 0,0 l/m 4,4 km/h (1 Bft) W-SW 250 0 min 0 lux 0,00 min 4,7 C 5,9 C
20.06.2011 02:10 5,5 C 92 % 1015 hPa 0,0 l/m 1,0 km/h (0 Bft) W-SW 250 0 min 0 lux 0,00 min 4,3 C 5,5 C
20.06.2011 02:25 5,3 C 93 % 1015 hPa 0,0 l/m 6,1 km/h (2 Bft) W-SW 250 0 min 0 lux 0,00 min 4,3 C 5,3 C
20.06.2011 02:40 5,2 C 93 % 1015 hPa 0,0 l/m 7,6 km/h (2 Bft) W-SW 250 0 min 0 lux 0,00 min 4,2 C 4,1 C
20.06.2011 02:55 4,9 C 93 % 1015 hPa 0,0 l/m 6,4 km/h (2 Bft) W-SW 250 0 min 0 lux 0,00 min 3,9 C 4,9 C
20.06.2011 03:10 4,7 C 93 % 1015 hPa 0,0 l/m 7,9 km/h (2 Bft) W-SW 250 0 min 0 lux 0,00 min 3,7 C 3,4 C
20.06.2011 03:25 4,6 C 93 % 1015 hPa 0,0 l/m 0,0 km/h (0 Bft) W-SW 250 0 min 0 lux 0,00 min 3,6 C 4,6 C
20.06.2011 03:40 4,6 C 94 % 1015 hPa 0,0 l/m 6,5 km/h (2 Bft) W-SW 250 0 min 0 lux 0,00 min 3,7 C 4,5 C
20.06.2011 03:55 4,7 C 94 % 1015 hPa 0,0 l/m 8,7 km/h (2 Bft) W-SW 250 0 min 0 lux 0,00 min 3,8 C 2,7 C
20.06.2011 04:10 4,8 C 95 % 1015 hPa 0,0 l/m 12,8 km/h (3 Bft) W-SW 250 0 min 0 lux 0,00 min 4,1 C 0,0 C
20.06.2011 04:25 4,9 C 95 % 1015 hPa 0,0 l/m 11,5 km/h (2 Bft) W-SW 250 0 min 0 lux 0,00 min 4,2 C 1,0 C
20.06.2011 04:40 5,1 C 95 % 1015 hPa 0,0 l/m 10,5 km/h (2 Bft) W-SW 250 0 min 0 lux 0,00 min 4,4 C 1,8 C
20.06.2011 04:55 4,9 C 95 % 1015 hPa 0,3 l/m 10,3 km/h (2 Bft) W-SW 250 0 min 45 lux 15,00 min 4,2 C 1,8 C
20.06.2011 05:10 4,7 C 95 % 1015 hPa 0,0 l/m 13,6 km/h (3 Bft) W-SW 250 0 min 238 lux 0,00 min 4,0 C -0,5 C
20.06.2011 05:25 4,8 C 95 % 1015 hPa 0,0 l/m 11,3 km/h (2 Bft) W-SW 250 0 min 849 lux 0,00 min 4,1 C 1,0 C
20.06.2011 05:40 4,9 C 95 % 1014 hPa 0,0 l/m 8,9 km/h (2 Bft) W-SW 250 0 min 2,73 klux 0,00 min 4,2 C 2,8 C
20.06.2011 05:55 4,9 C 95 % 1015 hPa 0,0 l/m 8,7 km/h (2 Bft) W-SW 250 0 min 6,60 klux 0,00 min 4,2 C 2,9 C
20.06.2011 06:10 5,2 C 96 % 1015 hPa 0,0 l/m 12,1 km/h (2 Bft) W-SW 250 0 min 11,7 klux 0,00 min 4,6 C 0,9 C
20.06.2011 06:25 5,7 C 96 % 1014 hPa 0,0 l/m 14,5 km/h (3 Bft) W-SW 250 0 min 17,7 klux 0,00 min 5,1 C 0,2 C
20.06.2011 06:40 6,8 C 96 % 1014 hPa 0,0 l/m 16,8 km/h (3 Bft) W-SW22.5 250 0 min 22,6 klux 0,00 min 6,2 C 0,4 C
20.06.2011 06:55 8,0 C 97 % 1014 hPa 0,0 l/m 20,3 km/h (4 Bft) W22.5 260 0 min 27,6 klux 0,00 min 7,6 C 0,6 C
20.06.2011 07:10 8,8 C 96 % 1014 hPa 0,0 l/m 17,8 km/h (3 Bft) W-SW22.5 255 0 min 22,7 klux 0,00 min 8,2 C 2,5 C
20.06.2011 07:25 9,7 C 95 % 1014 hPa 0,0 l/m 16,5 km/h (3 Bft) W 260 0 min 24,5 klux 0,00 min 8,9 C 4,2 C
20.06.2011 07:40 9,6 C 94 % 1014 hPa 0,0 l/m 16,6 km/h (3 Bft) SW45 235 0 min 9,5 klux 0,00 min 8,7 C 4,0 C
20.06.2011 07:55 9,4 C 92 % 1014 hPa 0,0 l/m 19,5 km/h (3 Bft) W-SW45 245 0 min 7,63 klux 0,00 min 8,2 C 2,7 C
20.06.2011 08:10 9,1 C 93 % 1014 hPa 0,3 l/m 24,3 km/h (4 Bft) SW45 225 0 min 7,35 klux 15,00 min 8,0 C 0,8 C
20.06.2011 08:25 9,1 C 93 % 1014 hPa 0,3 l/m 13,6 km/h (3 Bft) SW45 215 0 min 11,9 klux 15,00 min 8,0 C 4,7 C
20.06.2011 08:46 9,4 C 94 % 1014 hPa 0,0 l/m 12,2 km/h (2 Bft) SW22.5 225 0 min 14,6 klux 0,00 min 8,5 C 5,7 C
20.06.2011 09:02 9,8 C 93 % 1014 hPa 0,0 l/m 18,3 km/h (3 Bft) SW22.5 230 0 min 15,4 klux 0,00 min 8,7 C 3,6 C
20.06.2011 09:16 9,8 C 92 % 1014 hPa 0,0 l/m 12,3 km/h (3 Bft) S45 190 0 min 16,0 klux 0,00 min 8,6 C 6,1 C
20.06.2011 09:31 10,0 C 93 % 1013 hPa 0,0 l/m 15,7 km/h (3 Bft) S-SW45 210 0 min 17,1 klux 0,00 min 8,9 C 4,8 C
20.06.2011 09:46 10,4 C 92 % 1013 hPa 0,0 l/m 15,1 km/h (3 Bft) SW45 215 0 min 22,2 klux 0,00 min 9,2 C 5,6 C
20.06.2011 10:01 10,8 C 93 % 1013 hPa 0,0 l/m 14,6 km/h (3 Bft) S-SW45 195 0 min 23,6 klux 0,00 min 9,7 C 6,3 C
20.06.2011 10:16 11,0 C 92 % 1013 hPa 0,0 l/m 23,0 km/h (4 Bft) S67.5 185 0 min 26,7 klux 0,00 min 9,8 C 3,7 C
20.06.2011 10:31 10,9 C 92 % 1013 hPa 0,0 l/m 18,4 km/h (3 Bft) S45 190 0 min 19,5 klux 0,00 min 9,7 C 5,0 C
20.06.2011 10:47 10,8 C 92 % 1013 hPa 0,0 l/m 23,8 km/h (4 Bft) SW45 220 0 min 17,6 klux 0,00 min 9,6 C 3,2 C
20.06.2011 11:01 10,9 C 92 % 1013 hPa 0,0 l/m 21,6 km/h (4 Bft) S-SW22.5 200 0 min 20,2 klux 0,00 min 9,7 C 4,0 C
20.06.2011 11:16 10,8 C 92 % 1013 hPa 0,0 l/m 19,8 km/h (3 Bft) S-SW45 205 0 min 16,5 klux 0,00 min 9,6 C 4,4 C
20.06.2011 11:31 10,8 C 93 % 1013 hPa 0,0 l/m 18,4 km/h (3 Bft) S-SW22.5 210 0 min 22,8 klux 0,00 min 9,7 C 4,8 C
20.06.2011 11:46 11,2 C 93 % 1013 hPa 0,0 l/m 19,0 km/h (3 Bft) S-SW45 200 0 min 27,8 klux 0,00 min 10,1 C 5,2 C
20.06.2011 12:02 11,9 C 92 % 1013 hPa 0,0 l/m 21,4 km/h (4 Bft) SW45 220 0 min 36,9 klux 0,00 min 10,6 C 5,3 C
20.06.2011 12:16 12,2 C 90 % 1013 hPa 0,0 l/m 21,4 km/h (4 Bft) S-SW45 205 0 min 33,2 klux 0,00 min 10,6 C 5,7 C
20.06.2011 12:31 12,5 C 91 % 1012 hPa 0,0 l/m 24,3 km/h (4 Bft) SW22.5 215 0 min 36,5 klux 0,00 min 11,1 C 5,4 C
20.06.2011 12:46 12,2 C 90 % 1012 hPa 0,0 l/m 22,0 km/h (4 Bft) S-SW45 205 0 min 18,6 klux 0,00 min 10,6 C 5,6 C
20.06.2011 13:01 12,1 C 91 % 1013 hPa 0,0 l/m 21,7 km/h (4 Bft) SW45 225 0 min 26,8 klux 0,00 min 10,7 C 5,5 C
20.06.2011 13:16 13,1 C 92 % 1012 hPa 0,0 l/m 18,4 km/h (3 Bft) SW45 215 0 min 44,3 klux 0,00 min 11,8 C 7,8 C
20.06.2011 13:31 13,4 C 91 % 1012 hPa 0,0 l/m 24,6 km/h (4 Bft) SW45 230 0 min 42,3 klux 0,00 min 12,0 C 6,5 C
20.06.2011 13:47 13,6 C 90 % 1012 hPa 0,0 l/m 26,0 km/h (4 Bft) S-SW67.5 200 0 min 49,8 klux 0,00 min 12,0 C 6,5 C
20.06.2011 13:46 13,6 C 90 % 1012 hPa 0,0 l/m 26,0 km/h (4 Bft) S-SW67.5 200 0 min 49,8 klux 0,00 min 12,0 C 6,5 C
20.06.2011 14:01 14,1 C 90 % 1012 hPa 0,0 l/m 24,8 km/h (4 Bft) SW45 230 0 min 50,7 klux 0,00 min 12,5 C 7,4 C
20.06.2011 14:16 14,6 C 89 % 1012 hPa 0,0 l/m 21,0 km/h (4 Bft) SW67.5 225 0 min 49,6 klux 0,00 min 12,8 C 9,0 C
20.06.2011 14:31 14,8 C 89 % 1012 hPa 0,0 l/m 20,1 km/h (4 Bft) SW45 230 0 min 47,5 klux 0,00 min 13,0 C 9,5 C
20.06.2011 14:46 14,8 C 89 % 1012 hPa 0,0 l/m 22,8 km/h (4 Bft) W-SW45 245 0 min 50,9 klux 0,00 min 13,0 C 8,8 C
20.06.2011 15:02 14,4 C 88 % 1012 hPa 2,1 l/m 21,1 km/h (4 Bft) W-SW45 240 0 min 28,0 klux 16,00 min 12,4 C 8,7 C
20.06.2011 15:16 14,1 C 90 % 1012 hPa 0,0 l/m 23,1 km/h (4 Bft) SW45 235 0 min 32,3 klux 0,00 min 12,5 C 7,8 C
20.06.2011 15:31 14,2 C 90 % 1012 hPa 0,0 l/m 22,4 km/h (4 Bft) W-SW45 250 0 min 28,3 klux 0,00 min 12,6 C 8,1 C
20.06.2011 15:46 14,2 C 91 % 1012 hPa 0,0 l/m 27,3 km/h (4 Bft) W-SW45 250 0 min 26,5 klux 0,00 min 12,8 C 7,1 C
20.06.2011 16:01 14,3 C 91 % 1012 hPa 0,0 l/m 25,6 km/h (4 Bft) W-SW67.5 245 0 min 20,3 klux 0,00 min 12,8 C 7,5 C
20.06.2011 16:16 14,4 C 92 % 1012 hPa 0,0 l/m 25,4 km/h (4 Bft) W45 260 0 min 32,8 klux 0,00 min 13,1 C 7,7 C
20.06.2011 16:31 14,7 C 91 % 1012 hPa 0,0 l/m 23,6 km/h (4 Bft) W-SW45 240 0 min 23,8 klux 0,00 min 13,2 C 8,5 C
20.06.2011 16:47 14,6 C 91 % 1012 hPa 0,0 l/m 19,8 km/h (3 Bft) W-SW45 255 0 min 17,3 klux 0,00 min 13,1 C 9,3 C
20.06.2011 17:01 14,5 C 91 % 1012 hPa 0,0 l/m 20,5 km/h (4 Bft) W-SW22.5 255 0 min 16,4 klux 0,00 min 13,0 C 9,0 C
20.06.2011 17:16 14,7 C 91 % 1012 hPa 0,0 l/m 21,4 km/h (4 Bft) W-SW45 250 0 min 18,4 klux 0,00 min 13,2 C 9,0 C
20.06.2011 17:31 14,6 C 91 % 1012 hPa 0,0 l/m 18,1 km/h (3 Bft) SW45 235 0 min 16,1 klux 0,00 min 13,1 C 9,7 C
20.06.2011 17:46 14,4 C 92 % 1012 hPa 0,0 l/m 25,6 km/h (4 Bft) W-SW45 255 0 min 16,5 klux 0,00 min 13,1 C 7,7 C
20.06.2011 18:01 14,6 C 93 % 1012 hPa 0,0 l/m 26,1 km/h (4 Bft) W-SW22.5 255 0 min 19,9 klux 0,00 min 13,5 C 7,8 C
20.06.2011 18:16 14,8 C 93 % 1012 hPa 0,0 l/m 21,4 km/h (4 Bft) W-SW22.5 250 0 min 21,5 klux 0,00 min 13,7 C 9,1 C
20.06.2011 18:32 14,8 C 92 % 1012 hPa 0,0 l/m 29,0 km/h (5 Bft) W-SW45 255 0 min 21,4 klux 0,00 min 13,5 C 7,6 C
20.06.2011 18:46 14,6 C 92 % 1012 hPa 0,0 l/m 30,0 km/h (5 Bft) W-SW22.5 255 0 min 14,1 klux 0,00 min 13,3 C 7,1 C
20.06.2011 19:01 14,7 C 93 % 1012 hPa 0,0 l/m 25,6 km/h (4 Bft) W-SW45 250 0 min 21,4 klux 0,00 min 13,6 C 8,1 C
20.06.2011 19:16 15,0 C 92 % 1012 hPa 0,0 l/m 28,0 km/h (4 Bft) W45 260 0 min 55,3 klux 0,00 min 13,7 C 8,0 C
20.06.2011 19:31 15,3 C 90 % 1012 hPa 0,0 l/m 27,4 km/h (4 Bft) W 260 0 min 26,0 klux 0,00 min 13,7 C 8,6 C
20.06.2011 19:46 15,0 C 89 % 1012 hPa 0,0 l/m 29,0 km/h (5 Bft) W-SW22.5 255 0 min 13,3 klux 0,00 min 13,2 C 7,9 C
20.06.2011 20:02 14,5 C 90 % 1012 hPa 0,0 l/m 31,1 km/h (5 Bft) W-SW45 250 0 min 7,25 klux 0,00 min 12,9 C 6,8 C
20.06.2011 20:16 14,3 C 90 % 1012 hPa 0,0 l/m 22,1 km/h (4 Bft) W-SW45 250 0 min 5,39 klux 0,00 min 12,7 C 8,3 C
20.06.2011 20:31 14,1 C 91 % 1013 hPa 0,9 l/m 20,9 km/h (4 Bft) W22.5 260 0 min 5,61 klux 15,00 min 12,7 C 8,3 C
20.06.2011 20:46 14,0 C 91 % 1013 hPa 0,0 l/m 17,8 km/h (3 Bft) W-SW22.5 250 0 min 4,07 klux 0,00 min 12,6 C 9,1 C
20.06.2011 21:01 14,0 C 92 % 1013 hPa 0,0 l/m 16,6 km/h (3 Bft) W22.5 270 0 min 2,88 klux 0,00 min 12,7 C 9,4 C
20.06.2011 21:16 13,9 C 92 % 1013 hPa 0,0 l/m 16,8 km/h (3 Bft) W22.5 260 0 min 3,87 klux 0,00 min 12,6 C 9,3 C
20.06.2011 21:32 13,7 C 92 % 1013 hPa 0,0 l/m 13,1 km/h (3 Bft) W-SW22.5 250 0 min 3,44 klux 0,00 min 12,4 C 10,3 C
20.06.2011 21:46 13,4 C 92 % 1013 hPa 0,0 l/m 14,3 km/h (3 Bft) W-SW22.5 255 0 min 2,09 klux 0,00 min 12,1 C 9,5 C
20.06.2011 22:01 12,8 C 92 % 1013 hPa 0,0 l/m 5,7 km/h (1 Bft) W-SW 250 0 min 1,01 klux 0,00 min 11,5 C 12,8 C
20.06.2011 22:16 12,4 C 93 % 1013 hPa 0,0 l/m 0,0 km/h (0 Bft) W-SW 250 0 min 147 lux 0,00 min 11,3 C 12,4 C
20.06.2011 22:31 12,4 C 94 % 1013 hPa 0,0 l/m 1,2 km/h (1 Bft) W-SW 250 0 min 10 lux 0,00 min 11,5 C 12,4 C
20.06.2011 22:46 12,7 C 95 % 1013 hPa 0,0 l/m 12,2 km/h (2 Bft) W-SW22.5 240 0 min 4 lux 0,00 min 11,9 C 9,5 C
20.06.2011 23:01 12,9 C 95 % 1013 hPa 0,0 l/m 10,3 km/h (2 Bft) SW22.5 225 0 min 0 lux 0,00 min 12,1 C 10,6 C
20.06.2011 23:17 13,1 C 95 % 1013 hPa 0,0 l/m 11,8 km/h (2 Bft) SW45 225 0 min 0 lux 0,00 min 12,3 C 10,2 C
20.06.2011 23:31 13,2 C 95 % 1013 hPa 0,0 l/m 23,8 km/h (4 Bft) W-SW22.5 250 0 min 0 lux 0,00 min 12,4 C 6,4 C
20.06.2011 23:46 13,2 C 96 % 1013 hPa 0,6 l/m 17,1 km/h (3 Bft) SW45 230 0 min 0 lux 15,00 min 12,6 C 8,3 C
_ Min-Zeit 03:25 15:02 12:31 - 03:25 - - - - - 03:25 01:25
Minimum _ 4,6 C 88 % 1012 hPa - 0,0 km/h (0 Bft) - - - - - 3,6 C -1,5 C
_ Max-Zeit 19:31 06:55 00:11 15:02 20:02 - - 00:11 19:16 15:02 19:16 22:01
Maximum _ 15,3 C 97 % 1015 hPa 2,1 l/m 31,1 km/h
W-SW (5 Bft)
- - 0 min 55,3 klux 16,00 min 13,7 C 12,8 C
Durchschnitt _ 10,7 C 92 % 1013 hPa #4,5 l/m 17,1 km/h (3 Bft) W-SW - #0 min. 15,4 klux #1:31 h 9,5 C 5,8 C